Theta_e
293 294 294 291 291 291 290 290 288 291 294 299 300 301 297 298 298 296 295 295 295 294 294 295 295 296 297 298 298 298 298 297 297 298 299 299 299 299 300 300 300 300 300 301
292 296 296 292 293 293 293 295 295 296 296 302 302 299 297 298 297 294 294 293 293 293 293 293 293 294 295 295 296 297 296 296 297 298 299 298 298 298 298 298 298 299 299 299
286 295 295 289 294 293 296 297 297 292 298 303 297 297 297 296 296 294 293 292 291 290 290 290 290 292 292 292 294 294 294 295 296 296 297 297 298 297 297 297 297 298 299 300
286 290 281 291 300 300 297 299 300 300 301 297 293 292 293 295 293 292 291 290 288 287 287 287 288 290 291 291 291 292 292 292 294 294 296 298 297 296 296 297 298 299 299 301
286 285 292 296 298 298 295 295 302 294 290 289 291 290 287 291 291 289 289 288 287 287 287 287 287 288 289 289 290 290 290 291 292 294 298 296 294 294 296 299 301 301 301 301
289 286 283 293 300 303 302 290 295 292 290 291 296 288 285 289 289 288 288 288 287 287 287 286 286 287 288 288 287 287 289 290 292 295 296 294 293 295 298 300 301 302 303 304
287 286 291 299 302 301 287 289 296 295 295 294 288 288 286 287 287 287 287 286 287 286 285 286 288 290 288 287 286 289 290 291 291 293 294 293 294 296 297 299 301 301 301 302
286 288 285 296 299 292 293 296 293 290 288 285 286 286 286 286 285 285 285 285 286 285 285 286 287 287 286 286 288 290 290 290 290 292 293 293 293 295 297 298 300 300 298 298
286 285 290 293 292 295 295 291 291 289 289 287 285 284 284 283 283 283 284 285 286 285 285 287 288 288 287 289 291 290 289 290 291 291 291 291 292 294 295 297 297 295 295 294
287 287 288 289 290 291 291 289 290 289 287 286 283 283 282 282 283 284 284 284 285 285 285 285 288 289 289 290 289 289 289 289 289 290 290 289 291 293 295 295 293 291 291 291
285 287 289 288 288 288 288 288 287 287 286 284 283 283 283 283 284 284 285 286 286 285 285 285 287 288 289 289 289 288 288 288 288 289 289 288 289 292 294 291 290 289 288 288
286 289 286 285 288 289 287 286 286 285 284 285 284 283 284 283 283 283 283 282 281 281 284 284 286 287 288 289 290 288 288 287 287 288 288 287 287 290 291 291 290 289 289 288
287 289 288 288 288 288 285 285 285 284 284 283 284 284 284 283 283 284 281 280 281 282 282 284 284 286 287 288 290 289 288 287 287 288 287 287 286 285 286 289 290 289 288 288
290 289 286 287 284 287 286 286 287 285 285 285 285 286 286 285 285 281 280 280 282 283 283 284 284 284 286 288 288 288 288 289 288 287 286 286 286 287 286 285 285 286 288 288
289 289 287 287 287 286 286 286 284 284 285 285 286 285 285 284 284 281 282 283 284 284 283 283 283 284 286 287 287 286 287 287 287 288 288 287 286 286 287 286 286 286 286 287
289 288 288 286 286 286 285 284 283 284 284 285 284 281 281 281 283 283 282 283 282 281 283 282 283 284 285 285 286 286 286 286 286 286 285 285 285 285 285 285 285 285 285 284
287 286 287 286 286 285 285 285 284 284 284 284 284 284 280 280 280 280 281 281 282 282 282 284 282 285 285 285 285 285 285 284 284 284 283 283 283 283 283 284 284 284 284 284
290 289 288 288 286 285 284 284 283 283 283 284 285 282 277 276 276 278 280 281 281 282 282 283 284 284 285 284 284 284 283 283 283 282 282 282 282 282 282 282 282 282 282 283
290 289 289 288 287 286 285 283 283 284 284 284 284 277 276 275 278 280 281 281 279 280 280 283 285 283 284 284 284 283 283 282 282 282 281 281 281 281 281 281 281 281 281 281
289 289 288 287 286 285 283 283 283 283 283 284 283 279 276 276 278 281 281 280 279 279 282 283 283 282 283 284 284 283 282 281 280 280 281 280 280 280 280 280 280 280 280 280
288 288 287 286 285 285 284 284 283 282 282 282 277 274 272 276 281 281 279 279 280 283 284 284 282 282 283 282 282 282 281 280 280 279 279 279 279 279 279 279 279 279 279 279
288 287 286 285 284 283 283 283 283 283 283 281 280 276 276 278 278 281 282 279 280 284 283 283 282 282 282 282 281 281 280 280 280 279 279 278 278 278 278 278 278 279 279 279
288 287 287 285 284 283 283 283 283 283 283 283 282 280 278 278 278 278 279 282 283 284 283 282 282 281 281 281 280 280 279 279 279 279 278 278 278 278 277 278 278 278 278 279
289 288 286 286 285 284 283 283 283 283 283 283 283 283 282 280 280 280 280 284 284 283 283 283 282 281 281 281 279 278 278 277 277 278 278 277 277 277 277 277 278 279 278 279
289 288 287 285 284 283 283 284 283 283 282 282 282 283 284 283 281 282 283 284 284 283 283 282 281 280 281 281 280 278 278 277 277 276 276 276 276 276 277 277 277 278 279 279
287 286 287 286 285 285 285 285 283 284 283 283 284 284 285 285 285 284 283 283 283 283 282 281 280 280 280 279 279 279 279 279 278 277 276 276 275 276 276 276 276 277 277 278
288 288 287 287 286 286 287 286 285 285 285 285 284 285 285 284 284 283 283 282 282 282 281 281 281 280 279 279 278 278 278 278 277 277 276 276 275 275 276 276 276 276 277 277
Wind_Speed
9 16 15 12 16 13 8 6 7 9 15 18 14 15 13 13 15 15 12 13 11 11 9 10 10 10 9 8 7 5 6 5 4 3 4 5 4 4 4 4 5 5 6 6
5 10 9 9 13 15 7 8 10 16 11 11 11 16 16 15 16 14 12 13 12 12 12 12 9 7 6 6 5 4 5 5 6 7 5 5 4 5 5 6 6 6 7 7
4 3 5 7 2 4 6 1 19 9 11 20 18 16 15 14 15 16 14 13 12 11 9 8 8 7 7 6 5 5 6 6 6 6 4 4 5 5 6 6 5 6 6 6
3 3 3 3 2 8 18 9 12 22 21 18 18 17 16 11 16 15 13 11 9 8 8 8 7 7 6 7 6 6 7 7 7 6 5 4 5 6 6 4 5 5 7 8
4 4 3 4 5 3 5 9 12 26 22 22 23 22 14 13 14 14 12 10 8 7 6 6 6 6 4 4 5 7 8 9 8 7 7 7 7 8 6 5 7 7 7 9
2 5 3 1 3 10 1 8 14 17 21 24 19 12 5 9 12 13 12 8 7 7 6 6 5 3 2 6 7 7 7 6 7 8 8 7 7 7 6 6 7 7 9 8
5 4 3 1 4 7 4 9 16 18 18 10 6 6 14 12 13 12 9 8 7 7 6 5 6 7 8 6 6 7 7 7 6 7 8 5 8 5 7 7 7 7 8 9
2 4 4 12 7 3 11 15 17 14 16 22 20 18 15 13 11 10 10 8 6 5 6 6 6 5 5 5 5 6 8 7 7 6 6 6 7 7 7 6 7 6 8 8
6 4 7 11 13 13 13 19 14 19 16 22 19 16 13 13 11 9 8 8 7 6 8 7 7 7 8 9 8 9 7 8 7 7 7 7 7 7 5 6 6 7 7 8
4 8 11 15 17 18 20 21 18 17 18 17 20 15 13 10 10 10 9 9 8 8 8 8 9 9 8 9 9 8 8 8 7 6 8 7 5 4 5 6 6 7 7 7
9 8 17 18 15 18 21 19 22 19 16 16 17 14 13 12 11 9 8 7 8 8 8 9 7 9 9 9 9 9 8 8 7 7 7 7 6 4 4 7 7 6 7 7
5 8 14 9 11 13 22 19 18 19 18 14 14 14 11 9 8 8 7 7 7 8 10 9 10 9 10 9 8 9 7 7 5 4 5 5 5 4 8 6 11 10 11 11
9 17 20 17 16 16 20 17 16 17 15 16 12 11 11 10 9 10 8 8 9 8 6 6 8 10 10 10 9 8 7 8 5 5 5 5 5 6 5 5 6 8 13 14
16 16 16 12 12 13 17 17 19 16 13 13 13 11 10 9 9 8 7 5 6 5 7 7 8 10 10 10 10 9 8 11 5 5 5 5 5 5 4 5 6 8 11 12
17 16 18 15 14 14 12 12 14 13 13 13 11 10 8 7 8 7 6 5 8 8 10 10 9 9 9 9 8 10 7 6 6 6 4 5 5 5 5 6 6 8 9 10
15 14 13 15 12 10 10 10 13 12 11 10 10 8 6 6 7 7 6 6 8 8 9 8 8 8 8 8 8 8 7 15 10 6 6 6 6 7 6 7 7 7 8 9
17 11 10 11 9 7 8 7 9 10 10 9 9 8 6 6 6 4 5 5 5 6 7 8 7 8 8 9 9 7 6 7 11 7 7 7 8 8 8 7 7 7 7 10
10 9 8 10 10 9 9 10 10 10 9 9 8 8 5 5 6 5 4 5 6 8 8 6 6 7 9 9 9 7 6 6 6 7 7 8 8 7 8 8 8 8 8 9
11 12 10 10 8 9 9 10 9 10 9 8 7 6 5 4 4 4 4 6 6 6 6 6 12 10 9 13 9 6 7 7 7 8 8 10 9 9 8 8 9 9 9 9
12 11 11 10 9 9 10 9 10 8 8 8 8 6 6 4 4 4 4 5 2 1 2 7 8 8 9 11 11 7 7 8 9 8 8 8 9 8 8 10 9 9 9 9
11 10 10 9 9 9 8 8 8 7 6 5 6 5 4 3 4 3 5 4 5 5 6 10 7 6 6 6 7 7 7 8 8 8 9 8 8 8 8 9 9 9 9 9
10 9 9 8 8 7 6 6 7 6 6 7 7 4 5 3 4 3 2 2 1 8 5 4 4 8 6 9 6 6 6 7 7 7 7 7 8 8 8 8 8 9 9 9
8 8 8 8 8 8 7 6 6 5 5 6 6 5 3 2 2 3 2 3 3 7 4 4 4 7 7 6 6 6 7 7 7 7 6 6 7 7 7 7 7 8 8 9
9 8 7 8 8 8 7 4 5 5 5 4 5 4 3 2 1 0 1 4 10 7 4 3 4 5 5 5 5 5 6 5 5 6 6 7 6 6 6 7 7 6 7 8
8 8 8 9 7 5 6 6 6 5 5 4 4 3 2 1 2 2 3 4 9 6 4 5 5 6 4 3 3 4 4 5 5 4 5 5 6 6 6 6 6 7 7 7
8 7 7 7 6 6 6 6 5 4 4 4 2 2 1 2 3 4 4 5 4 5 4 3 3 4 4 4 4 4 4 4 5 5 5 4 5 6 7 8 7 7 7 8
5 6 4 3 4 6 6 6 6 5 4 4 4 3 3 3 4 5 5 4 4 4 3 2 2 3 2 2 2 3 3 3 4 4 4 4 4 5 6 7 7 8 8 8
Wind_Direction
130 136 146 150 171 175 168 159 146 173 153 163 150 140 124 118 113 101 91 81 74 73 62 58 54 45 39 41 43 44 63 68 65 65 54 40 18 346 329 337 338 329 319 325
73 100 116 140 168 177 161 95 65 114 84 118 104 113 121 123 113 98 87 82 71 65 55 47 40 41 40 36 27 38 47 38 30 29 21 8 349 341 340 340 330 326 328 322
39 22 116 75 27 126 107 121 140 145 153 132 126 121 124 124 112 108 102 91 80 71 62 53 37 31 35 17 13 30 33 25 23 14 352 340 346 341 335 321 312 312 314 314
93 31 108 257 230 107 91 51 102 107 128 120 110 94 84 88 105 103 97 90 79 72 52 30 18 17 13 9 11 19 22 11 7 351 329 353 354 335 322 310 312 317 323 324
106 83 165 69 134 130 121 50 127 119 117 117 116 89 57 72 84 94 93 84 76 67 58 35 19 2 10 12 18 16 14 7 344 320 351 3 350 335 317 321 335 328 320 321
98 95 175 43 111 111 89 87 115 122 128 136 145 123 135 106 94 87 82 80 76 64 56 45 8 349 23 30 15 360 354 339 328 351 356 352 335 324 329 327 326 331 333 336
109 99 92 353 340 328 145 157 135 139 141 121 89 90 114 105 90 83 79 78 74 62 47 25 5 14 31 13 360 344 343 333 339 346 349 349 330 333 331 330 329 337 346 351
81 106 110 356 328 111 139 105 109 97 104 105 105 104 107 100 91 84 76 68 63 65 55 35 19 16 19 5 332 343 349 346 341 352 354 346 337 336 336 339 340 343 358 357
38 57 33 37 78 73 101 104 108 107 112 111 111 105 107 102 94 86 79 73 64 59 54 37 30 25 19 8 359 353 355 354 353 355 357 353 350 342 348 350 5 8 9 358
124 20 61 62 69 74 82 90 94 93 103 106 107 111 105 101 98 88 76 66 57 53 48 37 24 23 15 5 6 10 7 4 359 359 358 3 358 354 9 16 21 20 7 357
80 113 79 52 63 88 85 87 89 85 90 101 106 100 102 98 91 80 70 59 49 40 33 23 10 19 11 2 9 13 12 11 5 359 4 4 1 358 49 54 51 28 19 7
87 84 99 88 79 87 96 92 96 101 94 86 95 101 105 95 75 68 59 45 41 31 31 12 15 15 8 360 12 15 8 12 7 1 354 12 7 10 45 61 62 45 31 30
95 86 89 87 78 81 91 95 95 93 90 93 84 88 81 87 74 67 56 44 38 28 15 14 12 17 6 0 25 25 20 16 3 9 1 16 25 31 18 354 30 25 23 24
93 103 75 64 94 83 84 86 84 82 84 87 93 88 78 78 80 59 50 46 36 31 25 19 19 17 360 5 26 29 16 10 11 6 13 13 15 28 30 26 20 10 17 14
68 71 97 103 92 90 93 99 93 91 94 90 85 82 78 77 77 69 49 46 48 42 34 28 20 10 3 11 27 34 22 16 12 6 11 21 27 29 33 33 27 26 15 14
97 94 95 93 96 93 95 92 98 100 99 99 88 78 79 67 68 58 60 49 49 37 29 23 20 360 16 19 28 33 36 34 24 12 17 20 23 27 28 27 28 27 25 11
109 104 107 99 108 108 100 98 101 107 109 106 102 89 85 82 74 61 47 34 46 44 30 26 10 12 29 27 38 39 36 36 32 35 33 32 35 28 23 26 24 25 23 17
85 85 88 115 121 116 103 99 103 110 111 117 118 98 93 87 88 60 45 47 48 41 29 12 32 27 35 38 41 43 45 37 33 36 33 38 37 31 30 26 24 21 18 16
92 98 94 94 102 105 103 104 103 112 117 118 111 98 100 87 71 68 65 59 47 42 7 15 42 37 37 47 42 38 41 36 36 41 37 34 34 33 31 26 24 24 20 14
93 89 90 88 84 92 100 99 111 116 121 127 112 100 88 58 49 62 58 59 49 289 17 46 37 36 38 43 41 38 43 44 44 38 35 33 34 29 29 23 29 26 22 18
113 106 100 96 94 94 104 115 120 117 116 115 111 106 104 39 68 72 56 55 337 79 68 55 48 37 42 44 42 40 43 46 43 38 38 28 19 20 23 18 18 23 19 17
122 120 118 115 107 102 101 104 115 117 101 115 121 111 102 85 70 52 82 118 329 91 79 58 53 54 51 47 41 34 37 47 46 42 39 34 25 19 17 18 14 12 11 10
120 127 124 127 127 123 114 114 122 123 117 124 135 143 151 147 124 116 72 360 107 102 91 82 77 69 54 46 45 42 33 38 39 38 33 29 22 16 9 6 7 5 4 2
126 129 122 117 120 119 122 130 127 128 135 136 141 162 150 111 25 256 250 115 107 109 109 97 75 69 70 72 57 52 47 41 33 29 27 25 14 12 8 360 355 359 359 355
135 128 130 138 141 145 135 137 123 119 118 124 144 170 206 187 165 173 123 104 115 107 98 79 69 65 61 69 80 57 44 36 30 25 21 16 8 4 358 357 350 343 340 348
148 154 161 165 162 153 150 148 143 145 139 140 161 179 173 66 97 117 105 104 106 109 103 89 77 69 64 61 56 43 28 20 14 8 0 356 354 357 355 351 344 339 335 337
108 124 134 141 149 153 159 159 152 163 166 156 146 158 141 107 109 115 113 111 106 104 98 90 85 90 85 78 72 52 37 23 12 0 353 345 341 334 337 347 345 339 335 336